STARLINK-11319, 61251

Orbit data source: Space-Track

STARLINK-11319, 61251 is a payload satellite owned by SpaceX/Seattle (US) in LEO that was launched on Wed, 25 Sep 2024 UTC via an FALCON 9 launch vehicle from the Air Force Western Test Range (AFWTR). Payload-class satellites include a variety of spacecraft equipped with specific instruments for various scientific and technological missions. These include communications satellites like Starlink; space stations such as the ISS; scientific satellites like the Hubble; Earth observation satellites from companies like Planet Labs, Umbra, and HawkEye 360; GPS; miniature CubeSats for education and research; and military/defense satellites.

Loading next visibility...
Identifier
61251, 2024-175J
Orbit
LEO
Last TLE update
23 hours ago
Origin
Manufacturer
SpaceX/Seattle
Mission
Operational Commercial Communications
Bus & Motor
STARLINK V2M, Unknown motor
Mass
730 kg wet, ~700 kg dry
Launch date (UTC)
2024-09-25 (10 months ago)
Launch vehicle
FALCON 9
Launch site
Air Force Western Test Range (AFWTR)
Object type
Payload
Rocket body
Debris
Shape & HBR
Box + 2 Pan, 29 m
Radar Cross Section
36.964 m², Large (>1 m²)

Expand to show TLE details & history

TLE from 23 hours ago
0 STARLINK-11319
1 61251U 24175J   25191.37276959 -.00000991  00000-0 -33203-5 0  9997
2 61251  53.1587 171.1083 0001161  84.2498 275.8652 15.69703142 45306
Epoch: 2025-07-10T08:56Z
TLE epoch observation values (Epoch: 2025-07-10T08:56:47.292Z)
Latitude
-0.00005°
Longitude
108.37123°
Altitude
360.581 km
Speed
7.694 km/s
True Right ascension
11h 24m 25s
True Declination
0° 00' 00"
Sunlit
Object was in daylight at epoch
Visualization orbit readout
Latitude
24.16008°
Longitude
123.15899°
Altitude
360.207 km
Speed
7.697 km/s
Apparent Right ascension
10h 35m 54s
Apparent Declination
-7° 57' 04"
Sunlit
Object is in daylight
Visualization observer readout
Local Sidereal Time
20:17:18
Azimuth
306.503° NW
Elevation
-45.534°
Doppler factor
1
Orbital elements
Apogee altitude
360.79 km
Perigee altitude
359.225 km
Semi-major axis
6,738.144 km
Eccentricity
0.00012
Inclination
53.1587°
RAAN
171.1083°
Arg. of periapsis
84.2498°
True anomaly
Unknown
Mean anomaly
275.8652°
Eccentric anomaly
Unknown
Mean motion
3.92403 °/min
Orbital period
91.74 mins
BSTAR
-0.0000033203
Loading maneuver chart data...
Loading SW <> Apogee altitude chart data...
Loading historical data...
Loading historical data...
Loading historical data...
Loading historical data...
Loading historical data...
Loading historical data...
Loading historical data...

STARLINK-11319 Visibility forecast

Observer location: undefined°, undefined°

Span
Click to sort rows by Start time (UTC) header in descending order
Start Az.
Max El. time (UTC)
Max El. Az.
Max El.
End time (UTC)
End Az.
5 mins2025-07-11 08:21:50.015Z304.483° NW2025-07-11 08:24:50.015Z208.674° SW41.848°2025-07-11 08:26:50.015Z143.146° SSE
4 mins2025-07-12 00:51:50.015Z214.648° SW2025-07-12 00:53:50.015Z112.681° SE41.125°2025-07-12 00:55:50.015Z58.238° ENE
4 mins2025-07-12 07:16:50.015Z337.189° NNW2025-07-12 07:17:50.015Z7.431° NNE30.222°2025-07-12 07:20:50.015Z104.728° ESE
|